Weather History for Kalispell, MT

Change the Weather History Date:

Monday, September 16, 2013

  Actual Average Record
Temperature  
Mean Temperature 64 °F 54 °F  
Max Temperature 79 °F 70 °F 88 °F (2009)
Min Temperature 48 °F 38 °F 23 °F (1973)
Degree Days  
Heating Degree Days 1 11  
Month to date heating degree days 18 134  
Since 1 July heating degree days 59 304  
Cooling Degree Days 0 0  
Month to date cooling degree days 29 1  
Year to date cooling degree days 264 144  
Growing Degree Days 16 (Base 50)    
Moisture  
Dew Point 51 °F    
Average Humidity 64    
Maximum Humidity 93    
Minimum Humidity 35    
Precipitation  
Precipitation 0.03 in 0.04 in 0.49 in (1977)
Month to date precipitation 0.89 0.77  
Year to date precipitation 11.51 12.38  
Snow  
Snow 0.00 in - - ()
Month to date snowfall 0.0  
Year to date snowfall 10.1  
Since 1 July snowfall 0.0  
Snow Depth 0.00 in    
Sea Level Pressure  
Sea Level Pressure 29.77 in    
Wind  
Wind Speed 5 mph (WSW)    
Max Wind Speed 21 mph    
Max Gust Speed 29 mph    
Visibility 10 miles    
Events Rain    
T = Trace of Precipitation, MM = Missing Value Source: NWS Daily Summary

Daily Weather History Graph

Daily Weather History Graph

Search for Another Location

Airport:

Trip Planner

Search our weather history database for the weather conditions in past years. The results will help you decide how hot, cold, wet, or windy it might be!

Date:

Astronomy

Sep. 16, 2013 Rise Set
Actual Time 7:15 AM MDT 7:46 PM MDT
Civil Twilight 6:44 AM MDT 8:18 PM MDT
Nautical Twilight 6:07 AM MDT 8:55 PM MDT
Astronomical Twilight 5:28 AM MDT 9:33 PM MDT
Moon 6:06 PM MDT (9/16) 3:55 AM MDT (9/16)
Length of Visible Light 13h 33m
Length of Day
12h 30m
Waxing Gibbous, 90% of the Moon is Illuminated
Sep 16
Waxing Gibbous
Sep 19
Full
Sep 26
Last Quarter
Oct 4
New
Oct 11
First Quarter

Hourly Weather History & Observations

Time (MDT) Temp. Dew Point Humidity Pressure Visibility Wind Dir Wind Speed Gust Speed Precip Events Conditions
12:55 AM 59.0 °F 51.1 °F 75% 29.71 in 10.0 mi Calm Calm - N/A   Clear
1:55 AM 55.9 °F 51.1 °F 84% 29.71 in 10.0 mi Calm Calm - N/A   Mostly Cloudy
2:55 AM 59.0 °F 52.0 °F 78% 29.74 in 10.0 mi WSW 10.4 mph 19.6 mph N/A   Mostly Cloudy
3:55 AM 60.1 °F 52.0 °F 75% 29.75 in 10.0 mi NNE 5.8 mph - N/A   Mostly Cloudy
4:55 AM 60.1 °F 52.0 °F 75% 29.78 in 10.0 mi Calm Calm - N/A   Mostly Cloudy
5:55 AM 57.0 °F 52.0 °F 83% 29.76 in 10.0 mi ENE 8.1 mph - N/A   Scattered Clouds
6:55 AM 55.9 °F 51.1 °F 84% 29.75 in 10.0 mi Calm Calm - N/A   Clear
7:55 AM 54.0 °F 51.1 °F 90% 29.77 in 6.0 mi Calm Calm - N/A   Smoke
8:55 AM 59.0 °F 53.1 °F 81% 29.79 in 5.0 mi NNW 4.6 mph - 0.02 in Rain Light Rain
9:55 AM 61.0 °F 55.9 °F 83% 29.80 in 10.0 mi Calm Calm - 0.00 in   Mostly Cloudy
10:55 AM 64.0 °F 57.9 °F 80% 29.80 in 10.0 mi Calm Calm - N/A   Overcast
11:55 AM 69.1 °F 57.9 °F 68% 29.78 in 10.0 mi Calm Calm - N/A   Mostly Cloudy
12:55 PM 72.0 °F 57.0 °F 59% 29.78 in 10.0 mi Calm Calm - N/A   Overcast
1:55 PM 75.9 °F 51.1 °F 42% 29.76 in 10.0 mi Calm Calm - N/A   Mostly Cloudy
2:55 PM 77.0 °F 53.1 °F 43% 29.74 in 10.0 mi Variable 3.5 mph - 0.01 in   Clear
3:55 PM 78.1 °F 48.9 °F 36% 29.73 in 10.0 mi WSW 15.0 mph 24.2 mph N/A   Clear
4:55 PM 75.0 °F 48.0 °F 38% 29.75 in 10.0 mi West 18.4 mph 26.5 mph N/A   Clear
5:55 PM 73.9 °F 46.9 °F 38% 29.77 in 10.0 mi WSW 15.0 mph 20.7 mph N/A   Clear
6:55 PM 71.1 °F 45.0 °F 39% 29.79 in 10.0 mi West 10.4 mph - N/A   Clear
7:55 PM 66.0 °F 46.0 °F 48% 29.81 in 10.0 mi WSW 8.1 mph - N/A   Clear
8:55 PM 60.1 °F 46.9 °F 62% 29.82 in 10.0 mi West 3.5 mph - N/A   Clear
9:55 PM 55.9 °F 46.9 °F 72% 29.83 in 10.0 mi SSE 3.5 mph - N/A   Clear
10:55 PM 53.1 °F 46.0 °F 77% 29.84 in 10.0 mi Calm Calm - N/A   Clear
11:55 PM 51.1 °F 46.0 °F 83% 29.83 in 10.0 mi SSW 3.5 mph - N/A   Clear